Terminal Aerodrome Forecast
Issued by NWS Missoula, MT

Home | Current Version | Previous Version | Text Only | Print | Product List | Glossary On
Versions: 1 2 3 4 5 6 7 8 9 10 11 12
000
FTUS45 KMSO 272337
TAFGPI
TAF
KGPI 272337Z 2800/2824 16010KT 1SM -SN BR SCT010 OVC015
     FM281200 03015G25KT 3/4SM -SN BKN005 OVC010
     FM281700 04020G40KT 3/4SM BLSN OVC010
     FM282200 03015G25KT 1SM BLSN OVC020=

USA.gov is the U.S. government's official web portal to all federal, state and local government web resources and services.